Regional Weather Roundup
Issued by NWS Huntsville, AL

Home | Current Version | Previous Version | Text Only | Print | Product List | Glossary On
Versions: 1 2 3 4 5 6 7 8 9 10 11 12 13 14 15 16 17 18 19 20 21 22 23 24 25 26 27 28 29 30 31 32 33 34 35 36 37 38 39 40 41 42 43 44 45 46 47 48 49 50
000
ASUS44 KHUN 301110
RWRHUN

WEATHER ROUNDUP FOR THE TENNESSEE VALLEY
NATIONAL WEATHER SERVICE HUNTSVILLE AL
500 AM CST FRI JAN 30 2015

ALZ001>004-301200-
NORTHWEST ALABAMA

CITY           SKY/WX    TMP DP  RH WIND       PRES   REMARKS
COURTLAND HCN    N/A     41 N/A N/A N6          N/A
RUSSELLVILLE     N/A     41 N/A N/A MISG        N/A
SHOALS AIRPORT CLOUDY    42  28  57 N12G17    30.38R
SHOALS TVA RES   N/A     41 N/A N/A MISG        N/A
$$

ALZ005>007-016-301200-
NORTH CENTRAL ALABAMA

CITY           SKY/WX    TMP DP  RH WIND       PRES   REMARKS
CULLMAN AG STN   N/A     39 N/A N/A MISG        N/A
DECATUR AP     CLOUDY    40  30  67 N8        30.35S WCI  34
HUNTSVILLE AP  CLOUDY    41  28  60 N8        30.34S
HUN NWS/UAH      N/A     39  26  59 N12         N/A  WCI  32
MERIDIANVILLE  CLOUDY    37  28  70 N12G18    30.34S WCI  30
REDSTONE ARSN  CLOUDY    40  29  64 N18       30.33S WCI  30
$$

ALZ008>010-301200-
NORTHEAST ALABAMA

CITY           SKY/WX    TMP DP  RH WIND       PRES   REMARKS
ALBERTVILLE    CLOUDY    37  32  81 N16G23    30.29S WCI  28
FORT PAYNE     CLOUDY    37  27  65 N9G20     30.29S WCI  31
SCOTTSBORO AP  CLOUDY    39  28  65 N10       30.33S WCI  32
VALLEY HEAD      N/A     37 N/A N/A MISG        N/A
$$

TNZ076-096-097-301200-
SOUTHEASTERN MIDDLE TENNESSEE

CITY           SKY/WX    TMP DP  RH WIND       PRES   REMARKS
TULLAHOMA      CLOUDY    34  27  75 N15       30.33R WCI  24
WINCHESTER     CLOUDY    36  28  75 N13       30.33R WCI  27
$$

...SURROUNDING SITES...

CITY           SKY/WX    TMP DP  RH WIND       PRES   REMARKS
ATLANTA        PTCLDY    39  25  57 NW25G39   30.21R WCI  28
ANNISTON       CLEAR     41  27  57 N10G18    30.29S
BIRMINGHAM     MOCLDY    40  27  59 N13       30.33R WCI  32
CHATTANOOGA    MOCLDY    40  26  57 N15G28    30.31R WCI  32
CORINTH        CLOUDY    41  28  60 N10G17    30.39S
DALTON         CLOUDY    37  30  75 N13       30.28S WCI  29
GADSDEN        CLOUDY    39  25  56 N7        30.31S WCI  34
GOLDEN TRNGL   CLEAR     37  28  70 NW6       30.38R WCI  33
HALEYVILLE       N/A     38  29  70 N14       30.36R WCI  30
JACKSON TN     CLOUDY    38  25  59 N13       30.43S WCI  30
LEWISBURG      CLOUDY    37  27  68 N8        30.37R WCI  31
MEMPHIS        CLEAR     37  28  70 N9        30.43S WCI  30
MURFREESBORO   CLOUDY    36  28  73 N9        30.37R WCI  29
NASHVILLE      CLOUDY    36  26  67 NW13G22   30.41R WCI  27
OXFORD MS      FAIR      28  25  86 CALM      30.42S
ROME           CLOUDY    41  27  57 NW10G18   30.27S
SAVANNAH       CLOUDY    39  27  60 N14       30.40R WCI  31
TUPELO         CLEAR     37  27  67 N5        30.39S WCI  33
TUSCALOOSA     MOCLDY    40  30  67 NW5       30.35R
$$

...GULF COAST WEATHER...

CITY           SKY/WX    TMP DP  RH WIND       PRES   REMARKS
GULFPORT       PTCLDY    52  41  66 N13       30.28R
PASCAGOULA     PTCLDY    52  43  71 N14       30.27R
MOBILE         PTCLDY    46  37  71 N21G26    30.29R
GULF SHORES    MOSUNNY   52  42  67 N13       30.25R
PENSACOLA      PTCLDY    53  44  71 N12G22    30.24R
DESTIN         PTCLDY    56  49  77 N17       30.22R
PANAMA CITY    MOCLDY    60  55  81 N9        30.19R
APPALACHICOLA  LGT RAIN  65  59  81 NW12      30.16S
$$




USA.gov is the U.S. government's official web portal to all federal, state and local government web resources and services.